OPS 4682 DEB, 38402

Orbit data source: Space-Track

OPS 4682 DEB, 38402 is space debris in LEO originally from a launch on Sat, 03 Apr 1965 UTC launched from the Air Force Western Test Range (AFWTR). Debris objects in space refer to the collection of defunct objects orbiting the Earth. Examples of debris include non-operational satellites, rocket bodies, and fragments generated from explosions, collisions, or faulty payload assembly.

Loading next visibility...
Identifier
38402, 1965-027DF
Orbit
LEO
Country
Flag of USUS
Related business
Manufacturer
Unknown
Mission
Spacecraft
Bus & Motor
Unknown
Mass
Unknown
Launch date (UTC)
1965-04-03 (61 years ago)
Launch vehicle
Unknown
Launch site
Air Force Western Test Range (AFWTR)
Object type
Payload
Rocket body
Debris
Shape & HBR
Unknown shape, 0.1 m
Radar Cross Section
Small (<0.1 m²)

Expand to show TLE details & history
Last TLE update: 14 hours ago

TLE from 14 hours ago
0 OPS 4682 DEB
1 38402U 65027DF  26150.57746992  .00000366  00000-0  12995-2 0  9993
2 38402  90.2387   4.7035 0026332 313.3826  46.5099 12.93892607584815
Epoch: 2026-05-30T13:51Z
TLE epoch observation values (Epoch: 2026-05-30T13:51:33.401Z)
Latitude
-0.00006°
Longitude
-91.27717°
Altitude
1,275.12 km
Speed
7.225 km/s
True Right ascension
00h 18m 48s
True Declination
0° 00' 00"
Sunlit
Object was in daylight at epoch
Visualization orbit readout
Latitude
Unknown
Longitude
Unknown
Altitude
Unknown
Speed
Unknown
Apparent Right ascension
Unknown
Apparent Declination
Unknown
Sunlit
N/A
Visualization observer readout
Local Sidereal Time
13:40:19
Azimuth
Unknown
Elevation
Unknown
Doppler factor
Unknown
Orbital elements
Apogee altitude
1,303.42 km
Perigee altitude
1,263.072 km
Semi-major axis
7,661.383 km
Eccentricity
0.00263
Inclination
90.2387°
RAAN
4.7035°
Arg. of periapsis
313.3826°
True anomaly
46.72931°
Mean anomaly
46.5099°
Eccentric anomaly
46.61955°
Mean motion
3.23655 °/min
Orbital period
111.23 mins
BSTAR
0.0012995
Loading maneuver chart data...
Computing Atmospheric mass density...
Loading historical data...
Loading historical data...
Loading historical data...
Loading historical data...
Loading historical data...
Loading historical data...
Loading historical data...

Documentation

Showing up to 5 results
|